TimeHST,TemperatureF,Dew PointF,Humidity,Sea Level PressureIn,VisibilityMPH,Wind Direction,Wind SpeedMPH,Gust SpeedMPH,PrecipitationIn,Events,Conditions,WindDirDegrees,DateUTC
12:54 AM,73.9,66.0,76,30.04,10.0,ENE,12.7,18.4,N/A,,Clear,70,2013-06-12 10:54:00
1:39 AM,75.2,66.2,73,30.02,10.0,East,13.8,20.7,N/A,,Scattered Clouds,90,2013-06-12 11:39:00
1:54 AM,75.9,64.9,69,30.03,10.0,Variable,3.5,16.1,N/A,,Mostly Cloudy,0,2013-06-12 11:54:00
2:54 AM,73.9,64.9,73,30.03,10.0,ENE,8.1,-,N/A,,Clear,70,2013-06-12 12:54:00
3:54 AM,73.9,64.9,73,30.02,10.0,East,11.5,20.7,N/A,,Clear,90,2013-06-12 13:54:00
4:54 AM,75.0,63.0,66,30.03,10.0,NE,17.3,27.6,N/A,,Clear,50,2013-06-12 14:54:00
5:54 AM,72.0,64.0,76,30.04,10.0,ESE,4.6,21.9,N/A,,Partly Cloudy,120,2013-06-12 15:54:00
6:54 AM,75.0,64.9,71,30.05,10.0,South,3.5,-,N/A,,Clear,170,2013-06-12 16:54:00
7:54 AM,80.1,64.9,60,30.06,10.0,Calm,Calm,-,N/A,,Clear,0,2013-06-12 17:54:00
8:54 AM,84.0,66.9,56,30.06,10.0,ENE,21.9,27.6,N/A,,Clear,60,2013-06-12 18:54:00
9:54 AM,84.9,68.0,57,30.06,10.0,ENE,20.7,32.2,N/A,,Clear,60,2013-06-12 19:54:00
10:54 AM,84.0,70.0,63,30.07,10.0,NE,27.6,36.8,0.00,,Scattered Clouds,50,2013-06-12 20:54:00
11:54 AM,82.9,71.1,67,30.08,10.0,ENE,20.7,36.8,0.00,,Scattered Clouds,60,2013-06-12 21:54:00
12:54 PM,82.0,71.1,69,30.06,10.0,NE,20.7,33.4,N/A,,Scattered Clouds,50,2013-06-12 22:54:00
1:54 PM,84.0,70.0,63,30.05,10.0,ENE,24.2,36.8,0.00,,Scattered Clouds,60,2013-06-12 23:54:00
2:54 PM,82.0,71.1,69,30.05,10.0,ENE,19.6,31.1,0.00,,Mostly Cloudy,60,2013-06-13 00:54:00
3:54 PM,82.0,69.1,65,30.04,10.0,ENE,17.3,28.8,N/A,,Scattered Clouds,70,2013-06-13 01:54:00
4:54 PM,82.9,69.1,63,30.03,10.0,ENE,19.6,28.8,N/A,,Scattered Clouds,60,2013-06-13 02:54:00
5:54 PM,80.1,70.0,71,30.04,10.0,NE,21.9,31.1,N/A,,Scattered Clouds,50,2013-06-13 03:54:00
6:54 PM,77.0,69.1,76,30.05,10.0,NE,19.6,32.2,N/A,,Scattered Clouds,50,2013-06-13 04:54:00
7:54 PM,77.0,69.1,76,30.07,10.0,NE,19.6,29.9,N/A,,Partly Cloudy,50,2013-06-13 05:54:00
8:54 PM,75.9,69.1,79,30.09,10.0,NE,19.6,-,N/A,,Clear,50,2013-06-13 06:54:00
9:54 PM,75.9,69.1,79,30.10,10.0,NE,19.6,-,N/A,,Clear,40,2013-06-13 07:54:00
10:54 PM,75.9,68.0,76,30.11,10.0,NE,19.6,26.5,N/A,,Clear,50,2013-06-13 08:54:00
11:54 PM,75.0,70.0,84,30.11,10.0,NE,12.7,-,0.00,,Clear,50,2013-06-13 09:54:00